When you browse on this site, cookies collect data to enhance your experience and personalize the content and advertising you see.
Visit our Privacy Policy to learn more. By continuing to use the site, you agree to this use of cookies and data.
  • In Hungary
  • List of Countries
  • For 7 days
  • Water Temperature
  • Satellite Maps
  • Weather Map
  • News
  • Weather Widgets
  • user-avatar
    Login

    Hourly Weather Laredo

    Today, 22 February, Friday

    Time Temperature Precipitation Wind Pressure Humidity
    00:00 +17°C° 0 mm 4 mps 747 mmHg 86%
    01:00 +17°C° 0 mm 3 mps 747 mmHg 89%
    02:00 +16°C° 0 mm 2 mps 747 mmHg 91%
    03:00 +17°C° 0 mm 2 mps 747 mmHg 90%
    04:00 +17°C° 0 mm 2 mps 747 mmHg 89%
    05:00 +17°C° 0 mm 2 mps 747 mmHg 89%
    06:00 +18°C° 0 mm 2 mps 747 mmHg 87%
    07:00 +18°C° 0 mm 2 mps 748 mmHg 86%
    08:00 +19°C° 0 mm 2 mps 748 mmHg 84%
    09:00 +20°C° 0 mm 2 mps 748 mmHg 81%
    10:00 +21°C° 0 mm 2 mps 749 mmHg 78%
    11:00 +23°C° 0 mm 2 mps 749 mmHg 74%
    12:00 +24°C° 0 mm 3 mps 748 mmHg 69%
    13:00 +25°C° 0 mm 3 mps 747 mmHg 63%
    14:00 +27°C° 0 mm 3 mps 746 mmHg 57%
    15:00 +26°C° 0 mm 4 mps 746 mmHg 59%
    16:00 +26°C° 0 mm 4 mps 745 mmHg 61%
    17:00 +26°C° 0 mm 4 mps 745 mmHg 63%
    18:00 +25°C° 0 mm 5 mps 745 mmHg 70%
    19:00 +23°C° 0 mm 5 mps 746 mmHg 78%
    20:00 +22°C° 0 mm 5 mps 746 mmHg 85%
    21:00 +22°C° 0 mm 5 mps 746 mmHg 87%
    22:00 +22°C° 0 mm 5 mps 746 mmHg 89%
    23:00 +22°C° 0 mm 5 mps 746 mmHg 91%

    Tomorrow, 23 February, Saturday

    Time Temperature Precipitation Wind Pressure Humidity
    00:00 +22°C° 0 mm 5 mps 745 mmHg 92%
    01:00 +22°C° 0 mm 4 mps 745 mmHg 93%
    02:00 +22°C° 0 mm 3 mps 745 mmHg 94%
    03:00 +22°C° 0 mm 3 mps 746 mmHg 93%
    04:00 +22°C° 0 mm 3 mps 746 mmHg 93%
    05:00 +21°C° 0 mm 3 mps 747 mmHg 93%
    06:00 +21°C° 0 mm 6 mps 748 mmHg 72%
    07:00 +20°C° 0 mm 8 mps 750 mmHg 52%
    08:00 +18°C° 0 mm 10 mps 751 mmHg 32%
    09:00 +21°C° 0 mm 10 mps 751 mmHg 29%
    10:00 +22°C° 0 mm 10 mps 752 mmHg 26%
    11:00 +24°C° 0 mm 9 mps 752 mmHg 23%
    12:00 +26°C° 0 mm 8 mps 751 mmHg 21%
    13:00 +26°C° 0 mm 7 mps 751 mmHg 20%
    14:00 +27°C° 0 mm 6 mps 750 mmHg 19%
    15:00 +27°C° 0 mm 5 mps 750 mmHg 19%
    16:00 +26°C° 0 mm 5 mps 750 mmHg 20%
    17:00 +25°C° 0 mm 4 mps 750 mmHg 20%
    18:00 +23°C° 0 mm 4 mps 751 mmHg 19%
    19:00 +22°C° 0 mm 3 mps 752 mmHg 18%
    20:00 +20°C° 0 mm 3 mps 753 mmHg 17%
    21:00 +20°C° 0 mm 2 mps 753 mmHg 18%
    22:00 +20°C° 0 mm 1 mps 754 mmHg 19%
    23:00 +19°C° 0 mm 1 mps 754 mmHg 20%

    Day after tomorrow, 24 February, Sunday

    Time Temperature Precipitation Wind Pressure Humidity
    00:00 +19°C° 0 mm 1 mps 754 mmHg 21%
    01:00 +18°C° 0 mm 1 mps 754 mmHg 22%
    02:00 +16°C° 0 mm 1 mps 754 mmHg 23%
    03:00 +16°C° 0 mm 1 mps 754 mmHg 22%
    04:00 +16°C° 0 mm 1 mps 754 mmHg 21%
    05:00 +15°C° 0 mm 1 mps 755 mmHg 20%
    06:00 +16°C° 0 mm 2 mps 755 mmHg 19%
    07:00 +17°C° 0 mm 3 mps 756 mmHg 19%
    08:00 +19°C° 0 mm 4 mps 757 mmHg 19%
    09:00 +20°C° 0 mm 4 mps 757 mmHg 17%
    10:00 +21°C° 0 mm 5 mps 757 mmHg 16%
    11:00 +23°C° 0 mm 5 mps 757 mmHg 15%
    12:00 +25°C° 0 mm 5 mps 756 mmHg 15%
    13:00 +25°C° 0 mm 5 mps 756 mmHg 14%
    14:00 +26°C° 0 mm 5 mps 755 mmHg 14%
    15:00 +26°C° 0 mm 5 mps 755 mmHg 17%
    16:00 +24°C° 0 mm 6 mps 754 mmHg 21%
    17:00 +23°C° 0 mm 6 mps 754 mmHg 24%
    18:00 +21°C° 0 mm 6 mps 755 mmHg 29%
    19:00 +20°C° 0 mm 6 mps 755 mmHg 33%
    20:00 +17°C° 0 mm 6 mps 756 mmHg 38%
    21:00 +17°C° 0 mm 5 mps 756 mmHg 43%
    22:00 +16°C° 0 mm 5 mps 756 mmHg 47%
    23:00 +15°C° 0 mm 5 mps 756 mmHg 52%

    25 February, Monday

    Time Temperature Precipitation Wind Pressure Humidity
    00:00 +15°C° 0 mm 4 mps 756 mmHg 55%
    01:00 +14°C° 0 mm 4 mps 756 mmHg 59%
    02:00 +14°C° 0 mm 3 mps 755 mmHg 62%
    03:00 +13°C° 0 mm 3 mps 755 mmHg 64%
    04:00 +13°C° 0 mm 3 mps 755 mmHg 65%
    05:00 +13°C° 0 mm 4 mps 755 mmHg 67%
    06:00 +14°C° 0 mm 4 mps 756 mmHg 65%
    07:00 +15°C° 0 mm 5 mps 756 mmHg 63%
    08:00 +16°C° 0 mm 5 mps 757 mmHg 62%
    09:00 +19°C° 0 mm 5 mps 756 mmHg 57%
    10:00 +21°C° 0 mm 6 mps 756 mmHg 51%
    11:00 +23°C° 0 mm 6 mps 756 mmHg 46%
    12:00 +23°C° 0 mm 6 mps 755 mmHg 47%
    13:00 +24°C° 0 mm 6 mps 754 mmHg 47%
    14:00 +24°C° 0 mm 6 mps 753 mmHg 48%
    15:00 +23°C° 0 mm 6 mps 753 mmHg 54%
    16:00 +22°C° 0 mm 6 mps 753 mmHg 60%
    17:00 +22°C° 0 mm 7 mps 752 mmHg 65%
    18:00 +21°C° 0 mm 6 mps 753 mmHg 69%
    19:00 +20°C° 0 mm 6 mps 753 mmHg 73%
    20:00 +20°C° 0 mm 5 mps 754 mmHg 78%
    21:00 +20°C° 0.1 mm 5 mps 753 mmHg 80%
    22:00 +20°C° 0.1 mm 4 mps 753 mmHg 82%
    23:00 +20°C° 0.1 mm 4 mps 753 mmHg 84%

    26 February, Tuesday

    Time Temperature Precipitation Wind Pressure Humidity
    00:00 +20°C° 0.1 mm 4 mps 752 mmHg 86%
    01:00 +20°C° 0.1 mm 3 mps 752 mmHg 87%
    02:00 +20°C° 0.1 mm 3 mps 752 mmHg 88%
    03:00 +20°C° 0.1 mm 2 mps 751 mmHg 90%
    04:00 +20°C° 0.1 mm 2 mps 751 mmHg 91%
    05:00 +20°C° 0.1 mm 2 mps 751 mmHg 92%
    06:00 +20°C° 0 mm 2 mps 752 mmHg 91%
    07:00 +21°C° 0 mm 2 mps 752 mmHg 89%
    08:00 +21°C° 0 mm 2 mps 752 mmHg 88%
    09:00 +23°C° 0.1 mm 2 mps 752 mmHg 83%
    10:00 +24°C° 0.1 mm 2 mps 752 mmHg 79%
    11:00 +25°C° 0.1 mm 1 mps 751 mmHg 75%
    12:00 +26°C° 0.1 mm 2 mps 750 mmHg 71%
    13:00 +26°C° 0.1 mm 2 mps 750 mmHg 68%
    14:00 +27°C° 0.1 mm 2 mps 749 mmHg 64%
    15:00 +27°C° 0 mm 2 mps 749 mmHg 64%
    16:00 +27°C° 0 mm 2 mps 749 mmHg 64%
    17:00 +28°C° 0 mm 2 mps 749 mmHg 64%
    18:00 +27°C° 0 mm 2 mps 749 mmHg 67%
    19:00 +26°C° 0 mm 2 mps 750 mmHg 71%
    20:00 +25°C° 0 mm 1 mps 750 mmHg 75%
    21:00 +25°C° 0 mm 2 mps 750 mmHg 77%
    22:00 +24°C° 0 mm 2 mps 750 mmHg 80%
    23:00 +24°C° 0 mm 2 mps 750 mmHg 83%

    27 February, Wednesday

    Time Temperature Precipitation Wind Pressure Humidity
    00:00 +24°C° 0 mm 2 mps 749 mmHg 85%
    01:00 +24°C° 0 mm 2 mps 749 mmHg 86%
    02:00 +23°C° 0 mm 2 mps 749 mmHg 88%
    03:00 +23°C° 0 mm 2 mps 749 mmHg 90%
    04:00 +21°C° 0 mm 2 mps 749 mmHg 92%
    05:00 +21°C° 0 mm 2 mps 750 mmHg 95%
    06:00 +23°C° 0 mm 2 mps 750 mmHg 91%
    07:00 +23°C° 0 mm 1 mps 751 mmHg 88%
    08:00 +24°C° 0 mm 1 mps 751 mmHg 84%
    09:00 +26°C° 0 mm 1 mps 751 mmHg 77%
    10:00 +25°C° 0 mm 0 mps 750 mmHg 69%
    11:00 +27°C° 0 mm 0 mps 750 mmHg 62%
    12:00 +28°C° 0 mm 0 mps 749 mmHg 57%
    13:00 +29°C° 0 mm 0 mps 748 mmHg 51%
    14:00 +30°C° 0 mm 0 mps 748 mmHg 46%
    15:00 +32°C° 0 mm 1 mps 748 mmHg 45%
    16:00 +32°C° 0 mm 2 mps 748 mmHg 44%
    17:00 +32°C° 0 mm 2 mps 748 mmHg 42%
    18:00 +31°C° 0 mm 3 mps 748 mmHg 47%
    19:00 +30°C° 0 mm 3 mps 749 mmHg 52%
    20:00 +29°C° 0 mm 4 mps 749 mmHg 56%
    21:00 +28°C° 0 mm 4 mps 749 mmHg 60%
    22:00 +28°C° 0 mm 4 mps 749 mmHg 64%
    23:00 +27°C° 0 mm 4 mps 749 mmHg 68%
    Show more